Date String (YYYY-MM-DD hh:mm:ss) UTC,Instrument flags,absolute air pressure of the measurement (hPa),sample flow rate (lpm),inlet stack bypass flow (lpm),air temperature of the measurement (°C),ambient temperature measured by the external sensor (°C),aerosol sample conditioner tube jacket temperature (°C),OPC LED temperature (°C),internal box temperature (°C),relative humidity of the measurement (%),span deviation,mass concentration of particles derived from Lorenz-Mie calculation of OPC scattering (μg/m³),mass concentration of particles derived from Lorenz-Mie calculation of OPC scattering (μg/m³),mass concentration of particles derived from Lorenz-Mie calculation of OPC scattering (μg/m³)
DateTimeUTC,F1_M11,P_M11,Q1_M11,Q2_M11,T1_M11,T2_M11,T3_M11,T4_M11,T5_M11,U1_M11,ZSPAN_M11,X2_M11,X0_M11,X1_M11
2023-12-15 20:00:00,SystemResetWarning,0835.0,5.00,000.00,022.5,021.7,000.0,030.6,023.9,14.2,0000.0,0002.69,0003.56,0002.38
2023-12-15 20:01:00,SystemResetWarning,0835.0,4.99,000.00,022.5,021.7,000.0,030.6,023.9,14.3,0000.0,0002.79,0003.63,0002.46
2023-12-15 20:02:00,SystemResetWarning,0835.0,4.99,000.00,022.5,021.7,000.0,030.6,023.9,14.8,0000.0,0002.94,0003.86,0002.57
2023-12-15 20:03:00,SystemResetWarning,0835.0,5.01,000.00,022.5,021.8,000.0,030.6,023.9,14.8,0000.0,0003.07,0005.04,0002.70
2023-12-15 20:04:00,SystemResetWarning,0835.0,5.01,000.00,022.5,021.8,000.0,030.6,023.9,14.5,0000.0,0003.18,0006.06,0002.84
2023-12-15 20:05:00,SystemResetWarning,0835.0,4.99,000.00,022.6,021.8,000.0,030.7,024.0,14.4,0000.0,0003.28,0007.01,0003.02
2023-12-15 20:06:00,SystemResetWarning,0835.0,4.99,000.00,022.6,021.8,000.0,030.7,024.0,14.8,0000.0,0003.38,0007.34,0003.14
2023-12-15 20:07:00,SystemResetWarning,0835.0,4.99,000.00,022.6,021.9,000.0,030.7,024.0,14.6,0000.0,0003.45,0007.42,0003.19
2023-12-15 20:08:00,SystemResetWarning,0835.0,5.00,000.00,022.6,021.9,000.0,030.7,024.0,14.9,0000.0,0003.55,0007.56,0003.26
2023-12-15 20:09:00,SystemResetWarning,0835.0,5.01,000.00,022.6,021.9,000.0,030.7,024.1,15.0,0000.0,0003.61,0007.64,0003.30
2023-12-15 20:10:00,SystemResetWarning,0835.0,5.01,000.00,022.6,021.9,000.0,030.7,024.1,15.2,0000.0,0003.71,0007.78,0003.37
2023-12-15 20:11:00,SystemResetWarning,0835.0,5.00,000.00,022.6,021.9,000.0,030.7,024.1,15.5,0000.0,0003.83,0007.96,0003.46
2023-12-15 20:12:00,SystemResetWarning,0835.0,5.00,000.00,022.7,021.9,000.0,030.8,024.1,15.6,0000.0,0003.94,0008.27,0003.56
2023-12-15 20:13:00,SystemResetWarning,0834.9,4.99,000.00,022.7,021.9,000.0,030.8,024.1,15.4,0000.0,0004.05,0008.50,0003.64
2023-12-15 20:14:00,SystemResetWarning,0834.9,4.99,000.00,022.7,021.9,000.0,030.8,024.1,15.1,0000.0,0004.15,0008.67,0003.71
2023-12-15 20:15:00,SystemResetWarning,0834.9,5.01,000.00,022.7,022.0,000.0,030.8,024.1,15.0,0000.0,0004.25,0008.84,0003.79
2023-12-15 20:16:00,SystemResetWarning,0835.0,5.01,000.00,022.7,022.0,000.0,030.8,024.1,14.8,0000.0,0004.33,0009.27,0003.84
2023-12-15 20:17:00,SystemResetWarning,0835.0,5.00,000.00,022.7,022.0,000.0,030.8,024.1,14.9,0000.0,0004.36,0009.32,0003.88
2023-12-15 20:18:00,SystemResetWarning,0835.0,4.99,000.00,022.8,022.0,000.0,030.8,024.2,15.1,0000.0,0004.45,0009.48,0003.92
2023-12-15 20:19:00,SystemResetWarning,0835.0,4.99,000.00,022.8,022.0,000.0,030.9,024.2,15.3,0000.0,0004.50,0010.20,0003.98
2023-12-15 20:20:00,SystemResetWarning,0835.0,5.01,000.00,022.8,022.0,000.0,030.9,024.2,15.2,0000.0,0004.54,0010.30,0004.03
2023-12-15 20:21:00,SystemResetWarning,0835.0,5.01,000.00,022.8,022.0,000.0,030.9,024.2,14.9,0000.0,0004.59,0011.08,0004.10
2023-12-15 20:22:00,SystemResetWarning,0835.0,5.00,000.00,022.8,022.1,000.0,030.9,024.2,14.8,0000.0,0004.63,0011.26,0004.14
2023-12-15 20:23:00,SystemResetWarning,0835.1,4.99,000.00,022.8,022.1,000.0,030.9,024.2,14.7,0000.0,0004.61,0011.09,0004.14
2023-12-15 20:24:00,SystemResetWarning,0835.0,5.00,000.00,022.8,022.1,000.0,030.9,024.3,14.9,0000.0,0004.61,0011.08,0004.13
2023-12-15 20:25:00,SystemResetWarning,0835.0,4.99,000.00,022.9,022.1,000.0,030.9,024.3,14.8,0000.0,0004.60,0010.82,0004.12
2023-12-15 20:26:00,SystemResetWarning,0835.0,5.01,000.00,022.9,022.1,000.0,031.0,024.3,14.5,0000.0,0004.56,0010.24,0004.10
2023-12-15 20:27:00,SystemResetWarning,0834.9,5.01,000.00,022.9,022.2,000.0,031.0,024.3,14.7,0000.0,0004.52,0009.63,0004.07
2023-12-15 20:28:00,SystemResetWarning,0834.9,4.99,000.00,022.9,022.2,000.0,031.0,024.3,14.5,0000.0,0004.49,0009.24,0004.03
2023-12-15 20:29:00,SystemResetWarning,0835.0,4.99,000.00,022.9,022.2,000.0,031.0,024.3,13.9,0000.0,0004.43,0009.12,0004.01
2023-12-15 20:30:00,SystemResetWarning,0834.9,5.01,000.00,022.9,022.2,000.0,031.0,024.3,13.7,0000.0,0004.38,0008.79,0003.98
2023-12-15 20:31:00,SystemResetWarning,0835.0,5.01,000.00,023.0,022.2,000.0,031.0,024.4,13.8,0000.0,0004.33,0009.12,0003.94
2023-12-15 20:32:00,SystemResetWarning,0835.0,5.01,000.00,023.0,022.2,000.0,031.0,024.4,13.8,0000.0,0004.27,0008.76,0003.89
2023-12-15 20:33:00,SystemResetWarning,0835.0,4.99,000.00,023.0,022.3,000.0,031.1,024.4,13.8,0000.0,0004.18,0008.14,0003.83
2023-12-15 20:34:00,SystemResetWarning,0835.0,4.99,000.00,023.0,022.3,000.0,031.1,024.4,13.8,0001.1,0004.10,0007.99,0003.76
2023-12-15 20:35:00,SystemResetWarning,0835.1,5.01,000.00,023.0,022.3,000.0,031.1,024.4,13.7,0002.6,0004.03,0007.81,0003.72
2023-12-15 20:36:00,SystemResetWarning,0835.1,5.01,000.00,023.0,022.3,000.0,031.1,024.4,13.5,0000.0,0003.95,0007.64,0003.66
2023-12-15 20:37:00,SystemResetWarning,0835.1,5.00,000.00,023.1,022.3,000.0,031.1,024.5,13.9,0000.9,0003.87,0007.45,0003.61
2023-12-15 20:38:00,SystemResetWarning,0835.1,4.99,000.00,023.1,022.3,000.0,031.1,024.5,14.0,0000.0,0003.80,0007.34,0003.57
2023-12-15 20:39:00,SystemResetWarning,0835.1,4.99,000.00,023.1,022.4,000.0,031.2,024.5,13.6,0000.0,0003.77,0007.28,0003.54
2023-12-15 20:40:00,SystemResetWarning,0835.1,4.99,000.00,023.1,022.4,000.0,031.2,024.6,13.5,0000.0,0003.74,0007.26,0003.52
2023-12-15 20:41:00,SystemResetWarning,0835.0,5.01,000.00,023.1,022.4,000.0,031.2,024.6,13.6,0000.0,0003.71,0007.20,0003.50
2023-12-15 20:42:00,SystemResetWarning,0835.0,5.01,000.00,023.1,022.4,000.0,031.2,024.6,13.8,0001.6,0003.71,0005.71,0003.49
2023-12-15 20:43:00,SystemResetWarning,0835.0,5.01,000.00,023.2,022.4,000.0,031.2,024.6,13.5,0002.2,0003.74,0005.82,0003.49
2023-12-15 20:44:00,SystemResetWarning,0835.1,4.98,000.00,023.2,022.4,000.0,031.2,024.6,13.3,0000.0,0003.75,0005.79,0003.51
2023-12-15 20:45:00,SystemResetWarning,0835.1,5.00,000.00,023.2,022.5,000.0,031.3,024.6,13.1,0000.0,0003.77,0006.89,0003.52
2023-12-15 20:46:00,SystemResetWarning,0835.1,5.01,000.00,023.2,022.5,000.0,031.3,024.6,13.0,0000.0,0003.79,0007.10,0003.54
2023-12-15 20:47:00,SystemResetWarning,0835.1,5.00,000.00,023.2,022.5,000.0,031.3,024.6,13.1,0000.0,0003.80,0007.16,0003.55
2023-12-15 20:48:00,SystemResetWarning,0835.1,4.99,000.00,023.2,022.5,000.0,031.3,024.6,13.2,0000.0,0003.81,0007.21,0003.56
2023-12-15 20:49:00,SystemResetWarning,0835.2,4.99,000.00,023.2,022.5,000.0,031.3,024.7,13.4,0000.0,0003.83,0007.70,0003.58
2023-12-15 20:50:00,SystemResetWarning,0835.1,5.00,000.00,023.3,022.6,000.0,031.3,024.7,13.4,0000.0,0003.83,0008.02,0003.59
2023-12-15 20:51:00,SystemResetWarning,0835.2,5.01,000.00,023.3,022.6,000.0,031.4,024.7,12.9,0000.0,0003.84,0007.96,0003.59
2023-12-15 20:52:00,SystemResetWarning,0835.2,5.00,000.00,023.3,022.6,000.0,031.4,024.8,13.0,0000.0,0003.86,0008.02,0003.59
2023-12-15 20:53:00,SystemResetWarning,0835.2,5.01,000.00,023.3,022.6,000.0,031.4,024.8,12.9,0000.0,0003.83,0007.94,0003.58
2023-12-15 20:54:00,SystemResetWarning,0835.2,5.00,000.00,023.3,022.6,000.0,031.4,024.8,12.5,0000.0,0003.80,0007.82,0003.58
2023-12-15 20:55:00,SystemResetWarning,0835.2,4.99,000.00,023.4,022.6,000.0,031.4,024.8,12.4,0000.0,0003.79,0007.82,0003.57
2023-12-15 20:56:00,SystemResetWarning,0835.2,4.99,000.00,023.4,022.7,000.0,031.4,024.8,12.0,0000.0,0003.76,0007.47,0003.54
2023-12-15 20:57:00,SystemResetWarning,0835.2,4.99,000.00,023.4,022.7,000.0,031.5,024.8,11.7,0000.0,0003.71,0007.33,0003.49
2023-12-15 20:58:00,SystemResetWarning,0835.2,5.01,000.00,023.4,022.7,000.0,031.5,024.8,11.9,0000.0,0003.63,0007.86,0003.42
2023-12-15 20:59:00,SystemResetWarning,0835.3,5.00,000.00,023.4,022.7,000.0,031.5,024.9,11.6,0000.0,0003.55,0007.73,0003.34
